User: anonymous   Login
Location: Unspecified
(0.0000°N, 0.0000°E)
Time: 11:22:59
(UTC+00:00)
Language:

Meteor 2-20 - Orbit

View from above orbital plane
View from above orbital plane
View from above satellite
View from above satellite

Ground track
Ground track

The orbit data is extracted from the following two-line orbital elements,

1 20826U 90086A   18018.21508800  .00000063  00000-0  43184-4 0  9996
2 20826  82.5265 125.4185 0013226  11.0401 349.1047 13.84229491379498
Epoch (UTC): 18 January 2018 05:09:43
Eccentricity: 0.0013226
inclination: 82.5265°
perigee height: 939 km
apogee height: 958 km
right ascension of ascending node: 125.4185°
argument of perigee: 11.0401°
revolutions per day: 13.84229491
mean anomaly at epoch: 349.1047°
orbit number at epoch: 37949

The dashed part of the orbit path shows where the satellite is in the earth's shadow,  

DLR